LRBM Weather Reports


time (UTC)temp
F
wind
direction
speed
knots
gust
knots
rain 1hr
in
rain 24hr
in
rain mn
in
humidity
%
barometer
mb
20260906023336 55 1.7 0.0 0.00 0.00 0.00 94 1020.0
20260906021842 55 90 2.6 0.0 0.00 0.00 0.00 94 1020.0
20260906020337 55 90 2.6 0.0 0.00 0.00 0.00 94 1020.0
20260906014837 55 1.7 0.0 0.00 0.00 0.00 94 1020.0
20260906013455 55 1.7 0.0 0.00 0.00 0.00 94 1020.0
20260906011835 55 80 4.3 0.0 0.00 0.00 0.00 94 1020.0
20260906010335 55 80 4.3 0.0 0.00 0.00 0.00 94 1020.0
20260906004954 55 70 2.6 0.0 0.00 0.00 0.00 94 1019.0
20260906003504 55 70 2.6 0.0 0.00 0.00 0.00 94 1019.0
20260906001954 55 1.7 0.0 0.00 0.00 0.00 94 1019.0
20260906000444 55 1.7 0.0 0.00 0.00 0.00 94 1019.0
20260905234846 55 60 2.6 0.0 0.00 0.00 0.00 94 1019.0
20260905233335 55 60 2.6 0.0 0.00 0.00 0.00 94 1019.0
20260905231955 57 50 4.3 0.0 0.00 0.00 0.00 88 1019.0
20260905230407 57 50 4.3 0.0 0.00 0.00 0.00 88 1019.0
20260905224955 57 70 4.3 0.0 0.00 0.00 0.00 88 1019.0
20260905223349 57 70 4.3 0.0 0.00 0.00 0.00 88 1019.0
20260905221939 55 0 0.0 0.0 0.00 0.00 0.00 94 1019.0
20260905220454 55 0 0.0 0.0 0.00 0.00 0.00 94 1019.0
20260905214953 59 0.9 0.0 0.00 0.00 0.00 82 1019.0
20260905213336 59 0.9 0.0 0.00 0.00 0.00 82 1019.0
20260905211835 57 0 0.0 0.0 0.00 0.00 0.00 88 1019.0
20260905210335 57 0 0.0 0.0 0.00 0.00 0.00 88 1019.0
20260905204846 61 1.7 0.0 0.00 0.00 0.00 77 1019.0
20260905203335 61 1.7 0.0 0.00 0.00 0.00 77 1019.0
20260905201835 63 350 1.7 0.0 0.00 0.00 0.00 73 1018.0
20260905200454 63 350 1.7 0.0 0.00 0.00 0.00 73 1018.0
20260905194945 61 1.7 0.0 0.00 0.00 0.00 83 1018.0
20260905193336 61 1.7 0.0 0.00 0.00 0.00 83 1018.0
20260905191904 64 330 2.6 0.0 0.00 0.00 0.00 73 1018.0
20260905190336 64 330 2.6 0.0 0.00 0.00 0.00 73 1018.0
20260905184833 66 1.7 0.0 0.00 0.00 0.00 68 1017.0
20260905183341 66 1.7 0.0 0.00 0.00 0.00 68 1017.0
20260905181832 68 350 4.3 0.0 0.00 0.00 0.00 64 1017.0
20260905180332 68 350 4.3 0.0 0.00 0.00 0.00 64 1017.0
20260905174832 66 1.7 0.0 0.00 0.00 0.00 73 1017.0
20260905173335 66 1.7 0.0 0.00 0.00 0.00 73 1017.0
20260905171843 70 290 2.6 0.0 0.00 0.00 0.00 64 1017.0
20260905170336 70 290 2.6 0.0 0.00 0.00 0.00 64 1017.0
20260905164835 70 280 4.3 0.0 0.00 0.00 0.00 64 1017.0
20260905163337 70 280 4.3 0.0 0.00 0.00 0.00 64 1017.0
20260905161833 72 270 4.3 0.0 0.00 0.00 0.00 61 1016.0
20260905160336 72 270 4.3 0.0 0.00 0.00 0.00 61 1016.0
20260905154849 73 270 5.2 0.0 0.00 0.00 0.00 57 1016.0
20260905153335 73 270 5.2 0.0 0.00 0.00 0.00 57 1016.0
20260905151836 75 280 7.0 0.0 0.00 0.00 0.00 54 1016.0
20260905150336 75 280 7.0 0.0 0.00 0.00 0.00 54 1016.0
20260905144832 75 230 4.3 0.0 0.00 0.00 0.00 54 1016.0
20260905143335 75 230 4.3 0.0 0.00 0.00 0.00 54 1016.0
20260905141833 77 2.6 0.0 0.00 0.00 0.00 51 1016.0
20260905140332 77 2.6 0.0 0.00 0.00 0.00 51 1016.0
20260905134952 73 170 2.6 0.0 0.00 0.00 0.00 57 1016.0
20260905133336 73 170 2.6 0.0 0.00 0.00 0.00 57 1016.0
20260905131838 73 10 2.6 0.0 0.00 0.00 0.00 57 1016.0
20260905130357 73 10 2.6 0.0 0.00 0.00 0.00 57 1016.0
20260905124833 73 1.7 0.0 0.00 0.00 0.00 53 1016.0
20260905123336 73 1.7 0.0 0.00 0.00 0.00 53 1016.0
20260905121903 73 290 5.2 0.0 0.00 0.00 0.00 57 1017.0
20260905120336 73 290 5.2 0.0 0.00 0.00 0.00 57 1017.0
20260905114836 75 280 8.7 0.0 0.00 0.00 0.00 54 1016.0
20260905113335 75 280 8.7 0.0 0.00 0.00 0.00 54 1016.0
20260905111854 77 270 6.1 0.0 0.00 0.00 0.00 47 1016.0
20260905110335 77 270 6.1 0.0 0.00 0.00 0.00 47 1016.0
20260905104836 79 280 11.3 0.0 0.00 0.00 0.00 45 1016.0
20260905103336 79 280 11.3 0.0 0.00 0.00 0.00 45 1016.0
20260905101835 81 280 11.3 0.0 0.00 0.00 0.00 42 1015.0
20260905100336 81 280 11.3 0.0 0.00 0.00 0.00 42 1015.0
20260905094954 82 1.7 0.0 0.00 0.00 0.00 40 1015.0
20260905093335 82 1.7 0.0 0.00 0.00 0.00 40 1015.0
20260905091836 81 1.7 0.0 0.00 0.00 0.00 42 1015.0
20260905090335 81 1.7 0.0 0.00 0.00 0.00 42 1015.0
20260905084835 81 2.6 0.0 0.00 0.00 0.00 42 1015.0
20260905083335 81 2.6 0.0 0.00 0.00 0.00 42 1015.0
20260905081835 81 2.6 0.0 0.00 0.00 0.00 42 1015.0
20260905080336 81 2.6 0.0 0.00 0.00 0.00 42 1015.0
20260905074835 79 120 6.1 0.0 0.00 0.00 0.00 42 1015.0
20260905073344 79 120 6.1 0.0 0.00 0.00 0.00 42 1015.0
20260905071836 77 110 6.1 0.0 0.00 0.00 0.00 51 1015.0
20260905070335 77 110 6.1 0.0 0.00 0.00 0.00 51 1015.0
20260905064836 73 100 7.8 0.0 0.00 0.00 0.00 53 1015.0
20260905063336 73 100 7.8 0.0 0.00 0.00 0.00 53 1015.0
20260905061836 72 80 6.1 0.0 0.00 0.00 0.00 57 1015.0
20260905060336 72 80 6.1 0.0 0.00 0.00 0.00 57 1015.0
20260905054836 70 80 5.2 0.0 0.00 0.00 0.00 60 1015.0
20260905053336 70 80 5.2 0.0 0.00 0.00 0.00 60 1015.0
20260905051835 66 80 5.2 0.0 0.00 0.00 0.00 64 1015.0
20260905050336 66 80 5.2 0.0 0.00 0.00 0.00 64 1015.0
20260905044836 63 70 6.1 0.0 0.00 0.00 0.00 73 1015.0
20260905043335 63 70 6.1 0.0 0.00 0.00 0.00 73 1015.0
20260905041835 63 80 7.0 0.0 0.00 0.00 0.00 73 1015.0
20260905040335 63 80 7.0 0.0 0.00 0.00 0.00 73 1015.0
20260905034836 63 80 7.0 0.0 0.00 0.00 0.00 73 1015.0
20260905033335 63 80 7.0 0.0 0.00 0.00 0.00 73 1015.0
20260905031836 63 90 7.0 0.0 0.00 0.00 0.00 73 1015.0
20260905030335 63 90 7.0 0.0 0.00 0.00 0.00 73 1015.0
20260905024848 61 90 7.8 0.0 0.00 0.00 0.00 77 1015.0